Flag for U.S.A. Weather past 2 weeks in Spartanburg, South Carolina, U.S.A.

41 °F


Feels Like: 37 °F
Forecast: 37 / 59 °F
Wind: 6 mph from Northeast

Location: Spartanburg Memorial

Current Time: Nov 26, 2015 at 7:26:21 AM

Latest Report: Nov 26, 2015 at 6:55 AM

Visibility: 10 mi

Pressure: 30.67 "Hg

Humidity: 70%

Dew point: 32 °F

Location of SpartanburgLocation

Historic Weather in Spartanburg — Graph


Spartanburg temperature yesterday

Maximum temperature yesterday: 57 °F (at 2:55 PM)
Minimum temperature yesterday: 32 °F (at 3:55 AM)
Average temperature yesterday: 44 °F

Past Weeks' High & Low Weather Summary

High73 °F (Nov 12, 1:15 PM)100% (Nov 11, 6:55 AM)30.67 "Hg (Nov 11, 6:55 AM)
Low27 °F (Nov 23, 7:15 AM)9% (Nov 14, 2:55 PM)29.81 "Hg (Nov 12, 3:15 PM)
Average49 °F61%30.21 "Hg
* Reported Nov 11 5:15 AM — Nov 26 5:55 AM, Spartanburg, Weather by CustomWeather, © 2015

Note: Actual official high and low records may vary slightly from our data, if they occured in-between our weather recording intervals... More about our weather records


Spartanburg weather history for previous 24 hours

Time TempWeatherWind HumidityBarometerVisibility
5:55 AM
Thu, Nov 26
41 °FClear.5 mph70%30.67 "Hg10 mi
5:35 AM43 °FClear.5 mph66%30.66 "Hg10 mi
5:15 AM43 °FClear.8 mph66%30.66 "Hg10 mi
4:55 AM43 °FClear.7 mph66%30.66 "Hg10 mi
4:35 AM43 °FClear.7 mph66%30.66 "Hg10 mi
4:15 AM43 °FClear.6 mph61%30.65 "Hg10 mi
3:55 AM43 °FClear.7 mph61%30.66 "Hg10 mi
3:35 AM43 °FClear.8 mph61%30.66 "Hg10 mi
2:55 AM43 °FClear.7 mph66%30.66 "Hg10 mi
2:35 AM41 °FClear.6 mph66%30.66 "Hg10 mi
2:15 AM43 °FClear.6 mph61%30.66 "Hg10 mi
1:35 AM43 °FClear.7 mph61%30.66 "Hg10 mi
12:55 AM43 °FClear.6 mph61%30.66 "Hg10 mi
12:35 AM43 °FClear.6 mph61%30.67 "Hg10 mi
11:55 PM
Wed, Nov 25
43 °FPassing clouds.6 mph61%30.66 "Hg10 mi
11:35 PM45 °FOvercast.6 mph57%30.66 "Hg10 mi
10:55 PM45 °FOvercast.5 mph61%30.66 "Hg10 mi
10:15 PM46 °FOvercast.6 mph53%30.65 "Hg10 mi
9:55 PM46 °FOvercast.5 mph53%30.64 "Hg10 mi
9:35 PM46 °FOvercast.5 mph53%30.64 "Hg10 mi
9:15 PM46 °FPassing clouds.5 mph53%30.64 "Hg10 mi
8:55 PM48 °FPassing clouds.3 mph50%30.64 "Hg10 mi
8:35 PM50 °FPartly cloudy.3 mph43%30.63 "Hg10 mi
8:15 PM50 °FOvercast.5 mph43%30.63 "Hg10 mi
7:35 PM50 °FPassing clouds.3 mph47%30.63 "Hg10 mi
7:15 PM50 °FClear.5 mph47%30.62 "Hg10 mi
6:55 PM50 °FPassing clouds.5 mph47%30.60 "Hg10 mi
6:35 PM50 °FClear.3 mph47%30.60 "Hg10 mi
5:55 PM52 °FClear.3 mph44%30.58 "Hg10 mi
5:35 PM52 °FClear.3 mph44%30.58 "Hg10 mi
5:15 PM54 °FSunny.3 mph41%30.58 "Hg10 mi
4:55 PM54 °FSunny.3 mph41%30.58 "Hg10 mi
4:35 PM54 °FSunny.5 mph41%30.57 "Hg10 mi
3:55 PM55 °FSunny.No wind38%30.56 "Hg10 mi
3:35 PM57 °FSunny.6 mph36%30.56 "Hg10 mi
3:15 PM57 °FSunny.3 mph33%30.55 "Hg10 mi
2:55 PM57 °FSunny.5 mph36%30.56 "Hg10 mi
2:35 PM55 °FSunny.5 mph38%30.56 "Hg10 mi
2:15 PM55 °FSunny.3 mph38%30.56 "Hg10 mi
1:55 PM55 °FSunny.5 mph38%30.57 "Hg10 mi
1:35 PM55 °FSunny.6 mph36%30.58 "Hg10 mi
1:15 PM54 °FSunny.6 mph38%30.58 "Hg10 mi
12:55 PM54 °FSunny.6 mph38%30.59 "Hg10 mi
12:35 PM54 °FSunny.6 mph38%30.59 "Hg10 mi
12:15 PM54 °FSunny.5 mph38%30.60 "Hg10 mi
11:55 AM54 °FSunny.8 mph38%30.60 "Hg10 mi
11:35 AM54 °FSunny.6 mph38%30.60 "Hg10 mi
11:15 AM52 °FSunny.5 mph44%30.62 "Hg10 mi
10:55 AM52 °FSunny.8 mph44%30.62 "Hg10 mi
10:35 AM50 °FSunny.7 mph50%30.61 "Hg10 mi
10:15 AM48 °FSunny.6 mph54%30.60 "Hg10 mi
9:55 AM46 °FSunny.3 mph57%30.60 "Hg10 mi
9:35 AM45 °FSunny.3 mph61%30.60 "Hg10 mi
9:15 AM43 °FSunny.3 mph66%30.59 "Hg10 mi
8:55 AM39 °FSunny.3 mph75%30.58 "Hg10 mi
8:35 AM37 °FSunny.No wind81%30.58 "Hg10 mi
8:15 AM36 °FSunny.3 mph87%30.58 "Hg10 mi
7:55 AM34 °FSunny.No wind87%30.56 "Hg10 mi
7:35 AM32 °FSunny.No wind87%30.55 "Hg10 mi
7:15 AM32 °FSunny.No wind87%30.55 "Hg10 mi
Weather by CustomWeather, © 2015

See weather overviewHow to use our weather pages